Location: Unspecified
(0.0000°N, 0.0000°E)
Time: 00:03:54
(UTC+00:00)

LightSail 2 - Pass Details

Date: 22 January 2020
Orbit: 698 x 724 km, 24.0° (Epoch: 26 February)

Event Time Altitude Azimuth Distance (km) Brightness Sun altitude
Exits shadow 04:17:11 10° 205° (SSW) 2,199 7.6 -26.7°
Reaches altitude 10° 04:17:19 10° 203° (SSW) 2,193 7.6 -26.7°
Maximum altitude 04:17:46 10° 198° (SSW) 2,186 7.7 -26.6°
Drops below altitude 10° 04:18:12 10° 193° (SSW) 2,192 7.7 -26.5°
Sets 04:23:30 0° 148° (SSE) 3,103 9.3 -25.3°
